Time,TemperatureF,DewpointF,PressureIn,WindDirection,WindDirectionDegrees,WindSpeedMPH,WindSpeedGustMPH,Humidity,HourlyPrecipIn,Conditions,Clouds,dailyrainin,SoftwareType,DateUTC
2013-07-23 00:00:00,67.3,50.6,29.98,SSE,158,0.7,0.7,55,0.00,,,0.00,WUHU216HW,2013-07-22 22:00:00,
2013-07-23 00:05:00,67.1,50.9,29.95,SSE,158,0.0,0.7,56,0.00,,,0.00,WUHU216HW,2013-07-22 22:05:00,
2013-07-23 00:10:00,67.1,50.9,29.92,SSE,158,0.0,0.7,56,0.00,,,0.00,WUHU216HW,2013-07-22 22:10:00,
2013-07-23 00:15:00,67.0,50.8,29.92,SSE,158,0.2,1.1,56,0.00,,,0.00,WUHU216HW,2013-07-22 22:15:00,
2013-07-23 00:20:00,67.0,51.2,29.92,ESE,113,1.1,1.1,57,0.00,,,0.00,WUHU216HW,2013-07-22 22:20:00,
2013-07-23 00:24:00,66.6,50.9,29.92,East,90,0.7,0.7,57,0.00,,,0.00,WUHU216HW,2013-07-22 22:24:00,
2013-07-23 00:27:00,66.8,51.0,29.92,ESE,113,1.1,1.1,57,0.00,,,0.00,WUHU216HW,2013-07-22 22:27:00,
2013-07-23 00:32:00,66.6,50.9,29.92,East,90,0.7,1.1,57,0.00,,,0.00,WUHU216HW,2013-07-22 22:32:00,
2013-07-23 01:00:00,65.7,51.0,29.97,SE,135,0.4,0.4,59,0.00,,,0.00,WUHU216HW,2013-07-22 23:00:00,
2013-07-23 01:05:00,65.5,50.9,29.94,SE,135,0.7,0.9,59,0.00,,,0.00,WUHU216HW,2013-07-22 23:05:00,
2013-07-23 01:10:00,65.5,50.9,29.91,SE,135,1.1,1.8,59,0.00,,,0.00,WUHU216HW,2013-07-22 23:10:00,
2013-07-23 01:15:00,65.5,50.9,29.91,SE,135,1.1,1.8,59,0.00,,,0.00,WUHU216HW,2013-07-22 23:15:00,
2013-07-23 01:20:00,65.5,50.9,29.91,SE,135,1.1,1.1,59,0.00,,,0.00,WUHU216HW,2013-07-22 23:20:00,
2013-07-23 02:00:00,64.3,50.5,29.97,SSE,158,0.0,0.0,61,0.00,,,0.00,WUHU216HW,2013-07-23 00:00:00,
2013-07-23 02:05:00,64.3,50.5,29.94,SSE,158,0.0,0.2,61,0.00,,,0.00,WUHU216HW,2013-07-23 00:05:00,
2013-07-23 02:10:00,64.3,50.5,29.91,SSE,158,0.0,0.2,61,0.00,,,0.00,WUHU216HW,2013-07-23 00:10:00,
2013-07-23 02:15:00,64.3,50.5,29.91,SSE,158,0.0,0.2,61,0.00,,,0.00,WUHU216HW,2013-07-23 00:15:00,
2013-07-23 02:20:00,64.3,50.5,29.91,SSE,158,0.0,0.0,61,0.00,,,0.00,WUHU216HW,2013-07-23 00:20:00,
2013-07-23 03:00:00,63.4,50.5,29.97,SSE,158,0.2,0.2,63,0.00,,,0.00,WUHU216HW,2013-07-23 01:00:00,
2013-07-23 03:05:00,63.2,50.8,29.94,SSE,158,0.4,1.1,64,0.00,,,0.00,WUHU216HW,2013-07-23 01:05:00,
2013-07-23 03:10:00,63.0,50.6,29.91,SSE,158,0.0,1.1,64,0.00,,,0.00,WUHU216HW,2013-07-23 01:10:00,
2013-07-23 03:15:00,63.0,50.6,29.91,SSE,158,0.0,0.4,64,0.00,,,0.00,WUHU216HW,2013-07-23 01:15:00,
2013-07-23 04:00:00,62.3,50.3,29.96,SSE,158,0.2,0.2,65,0.00,,,0.00,WUHU216HW,2013-07-23 02:00:00,
2013-07-23 04:05:00,62.3,50.3,29.93,SSE,158,0.0,0.2,65,0.00,,,0.00,WUHU216HW,2013-07-23 02:05:00,
2013-07-23 04:10:00,62.1,50.2,29.91,SSE,158,0.0,0.2,65,0.00,,,0.00,WUHU216HW,2013-07-23 02:10:00,
2013-07-23 04:11:00,62.1,50.2,29.91,SSE,158,0.0,0.0,65,0.00,,,0.00,WUHU216HW,2013-07-23 02:11:00,
2013-07-23 04:15:00,62.1,50.2,29.91,SSE,158,0.0,0.0,65,0.00,,,0.00,WUHU216HW,2013-07-23 02:15:00,
2013-07-23 04:20:00,62.1,50.2,29.91,SSE,158,0.0,0.0,65,0.00,,,0.00,WUHU216HW,2013-07-23 02:20:00,
2013-07-23 05:00:00,60.8,49.5,29.96,ESE,113,0.9,0.9,66,0.00,,,0.00,WUHU216HW,2013-07-23 03:00:00,
2013-07-23 05:05:00,60.7,49.7,29.93,ESE,113,0.4,1.1,67,0.00,,,0.00,WUHU216HW,2013-07-23 03:05:00,
2013-07-23 05:10:00,60.7,49.7,29.90,ESE,113,0.7,1.1,67,0.00,,,0.00,WUHU216HW,2013-07-23 03:10:00,
2013-07-23 05:15:00,60.5,49.5,29.90,ESE,113,0.4,0.9,67,0.00,,,0.00,WUHU216HW,2013-07-23 03:15:00,
2013-07-23 05:20:00,60.5,49.5,29.90,ESE,113,0.4,0.4,67,0.00,,,0.00,WUHU216HW,2013-07-23 03:20:00,
2013-07-23 06:00:00,60.3,50.1,29.96,East,90,0.4,0.4,69,0.00,,,0.00,WUHU216HW,2013-07-23 04:00:00,
2013-07-23 06:01:00,60.1,50.0,29.96,East,90,0.4,0.4,69,0.00,,,0.00,WUHU216HW,2013-07-23 04:01:00,
2013-07-23 06:06:00,60.3,50.1,29.92,East,90,0.0,0.4,69,0.00,,,0.00,WUHU216HW,2013-07-23 04:06:00,
2013-07-23 06:10:00,60.1,50.0,29.90,East,90,0.0,0.0,69,0.00,,,0.00,WUHU216HW,2013-07-23 04:10:00,
2013-07-23 06:11:00,60.1,50.0,29.90,East,90,0.0,0.4,69,0.00,,,0.00,WUHU216HW,2013-07-23 04:11:00,
2013-07-23 06:16:00,60.1,50.0,29.90,East,90,0.0,0.0,69,0.00,,,0.00,WUHU216HW,2013-07-23 04:16:00,
2013-07-23 07:00:00,60.8,51.5,29.96,East,90,0.0,0.0,71,0.00,,,0.00,WUHU216HW,2013-07-23 05:00:00,
2013-07-23 07:05:00,61.2,51.9,29.93,East,90,0.0,0.0,71,0.00,,,0.00,WUHU216HW,2013-07-23 05:05:00,
2013-07-23 07:10:00,61.4,51.9,29.89,East,90,0.0,0.0,71,0.00,,,0.00,WUHU216HW,2013-07-23 05:10:00,
2013-07-23 07:15:00,61.6,52.5,29.89,East,90,0.0,0.0,72,0.00,,,0.00,WUHU216HW,2013-07-23 05:15:00,
2013-07-23 07:20:00,61.9,52.8,29.89,ENE,68,0.0,0.4,72,0.00,,,0.00,WUHU216HW,2013-07-23 05:20:00,
2013-07-23 07:25:00,62.3,53.5,29.89,ENE,68,0.0,0.4,73,0.00,,,0.00,WUHU216HW,2013-07-23 05:25:00,
2013-07-23 07:30:00,62.6,53.8,29.88,NE,45,0.0,0.4,73,0.00,,,0.00,WUHU216HW,2013-07-23 05:30:00,
2013-07-23 07:35:00,63.0,53.8,29.88,NE,45,0.0,0.4,72,0.00,,,0.00,WUHU216HW,2013-07-23 05:35:00,
2013-07-23 07:40:00,63.4,54.2,29.88,North,0,0.4,0.7,72,0.00,,,0.00,WUHU216HW,2013-07-23 05:40:00,
2013-07-23 07:45:00,63.7,54.5,29.88,North,0,0.9,0.9,72,0.00,,,0.00,WUHU216HW,2013-07-23 05:45:00,
2013-07-23 07:50:00,63.7,54.2,29.88,North,0,0.4,0.9,71,0.00,,,0.00,WUHU216HW,2013-07-23 05:50:00,
2013-07-23 07:55:00,63.9,54.7,29.88,North,0,0.4,1.1,72,0.00,,,0.00,WUHU216HW,2013-07-23 05:55:00,
2013-07-23 08:00:00,64.3,55.1,29.88,North,0,0.4,1.1,72,0.00,,,0.00,WUHU216HW,2013-07-23 06:00:00,
2013-07-23 08:05:00,64.4,55.3,29.88,North,0,1.1,1.1,72,0.00,,,0.00,WUHU216HW,2013-07-23 06:05:00,
2013-07-23 08:10:00,64.8,55.3,29.88,NNE,23,0.2,1.1,71,0.00,,,0.00,WUHU216HW,2013-07-23 06:10:00,
2013-07-23 08:15:00,65.0,55.4,29.88,NNE,23,0.0,0.9,71,0.00,,,0.00,WUHU216HW,2013-07-23 06:15:00,
2013-07-23 08:20:00,65.5,55.9,29.89,WNW,293,0.4,1.1,71,0.00,,,0.00,WUHU216HW,2013-07-23 06:20:00,
2013-07-23 08:25:00,65.9,56.3,29.89,WNW,293,0.4,1.1,71,0.00,,,0.00,WUHU216HW,2013-07-23 06:25:00,
2013-07-23 08:30:00,66.2,56.2,29.89,NW,315,0.7,1.1,70,0.00,,,0.00,WUHU216HW,2013-07-23 06:30:00,
2013-07-23 08:36:00,66.6,56.5,29.89,NW,315,0.4,1.1,70,0.00,,,0.00,WUHU216HW,2013-07-23 06:36:00,
2013-07-23 08:41:00,67.0,56.9,29.89,NNW,338,0.0,0.9,70,0.00,,,0.00,WUHU216HW,2013-07-23 06:41:00,
2013-07-23 08:46:00,67.3,56.8,29.89,NNW,338,0.9,1.1,69,0.00,,,0.00,WUHU216HW,2013-07-23 06:46:00,
2013-07-23 08:51:00,67.7,57.2,29.89,NNW,338,0.4,1.1,69,0.00,,,0.00,WUHU216HW,2013-07-23 06:51:00,
2013-07-23 08:56:00,68.0,57.1,29.90,NNW,338,0.0,1.3,68,0.00,,,0.00,WUHU216HW,2013-07-23 06:56:00,
2013-07-23 09:01:00,68.4,57.4,29.89,WSW,248,0.0,1.3,68,0.00,,,0.00,WUHU216HW,2013-07-23 07:01:00,
2013-07-23 09:05:00,68.8,56.9,29.90,SW,225,0.4,1.1,66,0.00,,,0.00,WUHU216HW,2013-07-23 07:05:00,
2013-07-23 09:10:00,69.3,57.4,29.89,SW,225,0.9,1.1,66,0.00,,,0.00,WUHU216HW,2013-07-23 07:10:00,
2013-07-23 09:15:00,69.7,57.3,29.89,West,270,0.7,1.1,65,0.00,,,0.00,WUHU216HW,2013-07-23 07:15:00,
2013-07-23 09:21:00,70.2,57.4,29.89,North,0,1.8,2.5,64,0.00,,,0.00,WUHU216HW,2013-07-23 07:21:00,
2013-07-23 09:26:00,70.9,57.7,29.90,NNW,338,1.1,2.5,63,0.00,,,0.00,WUHU216HW,2013-07-23 07:26:00,
2013-07-23 09:31:00,71.6,58.0,29.90,North,0,1.6,2.5,62,0.00,,,0.00,WUHU216HW,2013-07-23 07:31:00,
2013-07-23 09:36:00,72.4,58.1,29.90,North,0,1.1,2.2,61,0.00,,,0.00,WUHU216HW,2013-07-23 07:36:00,
2013-07-23 09:41:00,72.9,58.2,29.90,East,90,0.0,2.2,60,0.00,,,0.00,WUHU216HW,2013-07-23 07:41:00,
2013-07-23 09:46:00,73.6,58.3,29.90,North,0,0.7,1.8,59,0.00,,,0.00,WUHU216HW,2013-07-23 07:46:00,
2013-07-23 09:51:00,74.2,57.9,29.90,NNE,23,1.1,1.3,57,0.00,,,0.00,WUHU216HW,2013-07-23 07:51:00,
2013-07-23 09:56:00,74.9,58.2,29.90,East,90,0.4,1.8,56,0.00,,,0.00,WUHU216HW,2013-07-23 07:56:00,
2013-07-23 10:01:00,75.6,58.8,29.90,NE,45,0.2,1.8,56,0.00,,,0.00,WUHU216HW,2013-07-23 08:01:00,
2013-07-23 10:06:00,76.3,59.0,29.89,NE,45,1.1,2.9,55,0.00,,,0.00,WUHU216HW,2013-07-23 08:06:00,
2013-07-23 10:11:00,76.7,58.2,29.90,NNW,338,0.7,2.9,53,0.00,,,0.00,WUHU216HW,2013-07-23 08:11:00,
2013-07-23 10:16:00,77.2,58.8,29.90,NE,45,2.9,2.9,53,0.00,,,0.00,WUHU216HW,2013-07-23 08:16:00,
2013-07-23 10:21:00,77.9,58.9,29.89,ENE,68,0.7,4.0,52,0.00,,,0.00,WUHU216HW,2013-07-23 08:21:00,
2013-07-23 10:26:00,78.5,58.9,29.89,ESE,113,2.5,4.0,51,0.00,,,0.00,WUHU216HW,2013-07-23 08:26:00,
2013-07-23 10:31:00,79.2,58.4,29.89,North,0,1.3,2.5,49,0.00,,,0.00,WUHU216HW,2013-07-23 08:31:00,
2013-07-23 10:36:00,79.7,57.7,29.89,East,90,1.8,3.4,47,0.00,,,0.00,WUHU216HW,2013-07-23 08:36:00,
2013-07-23 10:41:00,80.3,56.9,29.89,NNE,23,2.5,3.6,45,0.00,,,0.00,WUHU216HW,2013-07-23 08:41:00,
2013-07-23 10:46:00,80.8,56.8,29.89,NNE,23,1.8,4.7,44,0.00,,,0.00,WUHU216HW,2013-07-23 08:46:00,
2013-07-23 10:51:00,81.4,57.2,29.89,ESE,113,1.1,4.7,44,0.00,,,0.00,WUHU216HW,2013-07-23 08:51:00,
2013-07-23 10:56:00,81.9,56.5,29.89,East,90,1.6,4.7,42,0.00,,,0.00,WUHU216HW,2013-07-23 08:56:00,
2013-07-23 11:01:00,82.4,57.1,29.89,NNE,23,2.5,3.8,42,0.00,,,0.00,WUHU216HW,2013-07-23 09:01:00,
2013-07-23 11:06:00,83.0,56.9,29.89,NNE,23,1.8,3.8,41,0.00,,,0.00,WUHU216HW,2013-07-23 09:06:00,
2013-07-23 11:11:00,83.2,56.4,29.89,NE,45,1.8,4.0,40,0.00,,,0.00,WUHU216HW,2013-07-23 09:11:00,
2013-07-23 11:16:00,83.5,56.0,29.88,NE,45,2.9,4.7,39,0.00,,,0.00,WUHU216HW,2013-07-23 09:16:00,
2013-07-23 11:21:00,83.9,56.4,29.88,NE,45,0.9,4.7,39,0.00,,,0.00,WUHU216HW,2013-07-23 09:21:00,
2013-07-23 11:26:00,83.9,55.5,29.88,ENE,68,5.1,5.4,38,0.00,,,0.00,WUHU216HW,2013-07-23 09:26:00,
2013-07-23 11:31:00,83.9,54.7,29.88,NNE,23,2.2,5.4,37,0.00,,,0.00,WUHU216HW,2013-07-23 09:31:00,
2013-07-23 11:36:00,83.5,54.4,29.89,ENE,68,0.9,3.4,37,0.00,,,0.00,WUHU216HW,2013-07-23 09:36:00,
2013-07-23 11:41:00,83.7,55.4,29.88,NE,45,2.5,4.3,38,0.00,,,0.00,WUHU216HW,2013-07-23 09:41:00,
2013-07-23 11:46:00,83.9,55.5,29.88,ENE,68,1.8,4.5,38,0.00,,,0.00,WUHU216HW,2013-07-23 09:46:00,
2013-07-23 11:51:00,84.2,53.5,29.88,East,90,2.7,4.5,35,0.00,,,0.00,WUHU216HW,2013-07-23 09:51:00,
2013-07-23 11:56:00,84.6,54.5,29.88,East,90,3.4,4.0,36,0.00,,,0.00,WUHU216HW,2013-07-23 09:56:00,
2013-07-23 12:01:00,85.0,54.1,29.88,NNW,338,1.6,4.0,35,0.00,,,0.00,WUHU216HW,2013-07-23 10:01:00,
2013-07-23 12:06:00,85.1,52.7,29.89,NNE,23,4.0,5.4,33,0.00,,,0.00,WUHU216HW,2013-07-23 10:06:00,
2013-07-23 12:11:00,85.0,54.1,29.88,SE,135,3.4,5.4,35,0.00,,,0.00,WUHU216HW,2013-07-23 10:11:00,
2013-07-23 12:16:00,85.0,53.3,29.88,South,180,2.5,4.7,34,0.00,,,0.00,WUHU216HW,2013-07-23 10:16:00,
2013-07-23 12:21:00,85.3,54.5,29.88,WSW,248,3.4,4.7,35,0.00,,,0.00,WUHU216HW,2013-07-23 10:21:00,
2013-07-23 12:26:00,85.9,54.9,29.88,South,180,0.9,3.4,35,0.00,,,0.00,WUHU216HW,2013-07-23 10:26:00,
2013-07-23 12:31:00,86.0,54.3,29.88,NE,45,1.8,4.5,34,0.00,,,0.00,WUHU216HW,2013-07-23 10:31:00,
2013-07-23 12:36:00,85.5,54.6,29.89,ENE,68,2.0,5.6,35,0.00,,,0.00,WUHU216HW,2013-07-23 10:36:00,
2013-07-23 12:41:00,85.5,54.6,29.88,SE,135,1.3,5.6,35,0.00,,,0.00,WUHU216HW,2013-07-23 10:41:00,
2013-07-23 12:46:00,86.0,55.1,29.88,East,90,0.9,2.0,35,0.00,,,0.00,WUHU216HW,2013-07-23 10:46:00,
2013-07-23 12:51:00,86.4,54.6,29.88,NNE,23,3.6,3.6,34,0.00,,,0.00,WUHU216HW,2013-07-23 10:51:00,
2013-07-23 12:56:00,86.4,54.6,29.88,ESE,113,1.6,3.8,34,0.00,,,0.00,WUHU216HW,2013-07-23 10:56:00,
2013-07-23 13:01:00,86.8,54.9,29.88,SE,135,1.3,4.0,34,0.00,,,0.00,WUHU216HW,2013-07-23 11:01:00,
2013-07-23 13:06:00,86.9,55.1,29.88,ESE,113,1.8,4.0,34,0.00,,,0.00,WUHU216HW,2013-07-23 11:06:00,
2013-07-23 13:11:00,86.9,55.1,29.88,SE,135,0.2,3.8,34,0.00,,,0.00,WUHU216HW,2013-07-23 11:11:00,
2013-07-23 13:16:00,86.9,54.3,29.87,NNE,23,0.7,3.8,33,0.00,,,0.00,WUHU216HW,2013-07-23 11:16:00,
2013-07-23 13:21:00,86.9,54.3,29.87,NNE,23,0.7,1.8,33,0.00,,,0.00,WUHU216HW,2013-07-23 11:21:00,
2013-07-23 14:00:00,86.4,53.8,29.94,WSW,248,1.8,1.8,33,0.00,,,0.00,WUHU216HW,2013-07-23 12:00:00,
2013-07-23 14:05:00,86.6,53.2,29.90,NNW,338,2.5,2.7,32,0.00,,,0.00,WUHU216HW,2013-07-23 12:05:00,
2013-07-23 14:10:00,86.4,52.2,29.88,NNW,338,4.0,4.5,31,0.00,,,0.00,WUHU216HW,2013-07-23 12:10:00,
2013-07-23 14:15:00,86.2,51.3,29.87,North,0,2.2,6.0,30,0.00,,,0.00,WUHU216HW,2013-07-23 12:15:00,
2013-07-23 14:20:00,86.0,51.9,29.87,NNE,23,3.6,6.0,31,0.00,,,0.00,WUHU216HW,2013-07-23 12:20:00,
2013-07-23 14:25:00,86.2,52.0,29.87,WSW,248,0.2,3.8,31,0.00,,,0.00,WUHU216HW,2013-07-23 12:25:00,
2013-07-23 14:30:00,86.6,52.4,29.87,NW,315,1.3,3.6,31,0.00,,,0.00,WUHU216HW,2013-07-23 12:30:00,
2013-07-23 14:35:00,86.8,52.5,29.87,WSW,248,0.4,2.0,31,0.00,,,0.00,WUHU216HW,2013-07-23 12:35:00,
2013-07-23 14:40:00,86.9,51.8,29.87,NNE,23,0.4,2.0,30,0.00,,,0.00,WUHU216HW,2013-07-23 12:40:00,
2013-07-23 14:41:00,86.9,51.8,29.87,North,0,0.7,0.7,30,0.00,,,0.00,WUHU216HW,2013-07-23 12:41:00,
2013-07-23 14:45:00,86.9,51.8,29.87,North,0,0.7,1.8,30,0.00,,,0.00,WUHU216HW,2013-07-23 12:45:00,
2013-07-23 14:50:00,86.9,51.8,29.87,North,0,0.7,1.8,30,0.00,,,0.00,WUHU216HW,2013-07-23 12:50:00,
2013-07-23 15:00:00,87.7,52.4,29.92,NNE,23,2.7,2.7,30,0.00,,,0.00,WUHU216HW,2013-07-23 13:00:00,
2013-07-23 15:05:00,87.5,52.3,29.89,NE,45,2.5,3.8,30,0.00,,,0.00,WUHU216HW,2013-07-23 13:05:00,
2013-07-23 15:10:00,87.7,52.4,29.86,ESE,113,0.2,3.8,30,0.00,,,0.00,WUHU216HW,2013-07-23 13:10:00,
2013-07-23 15:15:00,87.7,50.3,29.86,North,0,5.4,7.2,28,0.00,,,0.00,WUHU216HW,2013-07-23 13:15:00,
2013-07-23 15:19:00,87.1,52.0,29.86,ENE,68,3.4,3.4,30,0.00,,,0.00,WUHU216HW,2013-07-23 13:19:00,
2013-07-23 15:20:00,87.1,52.0,29.86,ENE,68,3.4,7.2,30,0.00,,,0.00,WUHU216HW,2013-07-23 13:20:00,
2013-07-23 15:25:00,87.1,52.0,29.86,ENE,68,3.4,5.4,30,0.00,,,0.00,WUHU216HW,2013-07-23 13:25:00,
2013-07-23 16:00:00,86.8,51.7,29.92,ENE,68,6.0,6.0,30,0.00,,,0.00,WUHU216HW,2013-07-23 14:00:00,
2013-07-23 16:05:00,86.9,50.8,29.89,NNE,23,4.9,7.8,29,0.00,,,0.00,WUHU216HW,2013-07-23 14:05:00,
2013-07-23 16:10:00,86.9,50.8,29.87,North,0,8.1,8.1,29,0.00,,,0.00,WUHU216HW,2013-07-23 14:10:00,
2013-07-23 16:15:00,86.8,51.7,29.86,NNE,23,3.4,8.1,30,0.00,,,0.00,WUHU216HW,2013-07-23 14:15:00,
2013-07-23 16:20:00,86.8,51.7,29.86,North,0,4.7,4.7,30,0.00,,,0.00,WUHU216HW,2013-07-23 14:20:00,
2013-07-23 16:25:00,86.8,50.6,29.86,NNE,23,4.7,4.7,29,0.00,,,0.00,WUHU216HW,2013-07-23 14:25:00,
2013-07-23 16:30:00,86.8,50.6,29.86,NNE,23,4.7,4.7,29,0.00,,,0.00,WUHU216HW,2013-07-23 14:30:00,
2013-07-23 17:00:00,86.9,50.8,29.91,NE,45,1.6,1.6,29,0.00,,,0.00,WUHU216HW,2013-07-23 15:00:00,
2013-07-23 17:05:00,86.8,50.6,29.89,NNE,23,2.0,4.9,29,0.00,,,0.00,WUHU216HW,2013-07-23 15:05:00,
2013-07-23 17:10:00,86.8,50.6,29.86,ENE,68,0.9,5.6,29,0.00,,,0.00,WUHU216HW,2013-07-23 15:10:00,
2013-07-23 17:15:00,86.9,49.7,29.85,NNE,23,6.3,6.3,28,0.00,,,0.00,WUHU216HW,2013-07-23 15:15:00,
2013-07-23 17:20:00,86.8,49.6,29.85,NE,45,2.5,6.3,28,0.00,,,0.00,WUHU216HW,2013-07-23 15:20:00,
2013-07-23 17:25:00,86.8,48.5,29.85,NNE,23,1.8,7.6,27,0.00,,,0.00,WUHU216HW,2013-07-23 15:25:00,
2013-07-23 17:30:00,86.8,49.6,29.85,NNE,23,5.8,7.6,28,0.00,,,0.00,WUHU216HW,2013-07-23 15:30:00,
2013-07-23 17:34:00,86.9,49.7,29.85,NE,45,2.5,2.5,28,0.00,,,0.00,WUHU216HW,2013-07-23 15:34:00,
2013-07-23 17:35:00,86.9,49.7,29.85,NE,45,2.5,5.8,28,0.00,,,0.00,WUHU216HW,2013-07-23 15:35:00,
2013-07-23 17:40:00,86.9,49.7,29.85,NE,45,2.5,5.4,28,0.00,,,0.00,WUHU216HW,2013-07-23 15:40:00,
2013-07-23 18:00:00,86.9,46.5,29.90,ESE,113,3.6,3.6,25,0.00,,,0.00,WUHU216HW,2013-07-23 16:00:00,
2013-07-23 18:05:00,86.9,47.5,29.86,NE,45,1.6,5.4,26,0.00,,,0.00,WUHU216HW,2013-07-23 16:05:00,
2013-07-23 18:10:00,86.9,47.5,29.85,NE,45,2.5,5.4,26,0.00,,,0.00,WUHU216HW,2013-07-23 16:10:00,
2013-07-23 18:11:00,86.9,49.7,29.84,ENE,68,1.8,1.8,28,0.00,,,0.00,WUHU216HW,2013-07-23 16:11:00,
2013-07-23 18:15:00,86.9,49.7,29.84,ENE,68,1.8,4.9,28,0.00,,,0.00,WUHU216HW,2013-07-23 16:15:00,
2013-07-23 18:20:00,86.9,49.7,29.84,ENE,68,1.8,4.7,28,0.00,,,0.00,WUHU216HW,2013-07-23 16:20:00,
2013-07-23 18:25:00,86.9,49.7,29.87,NNE,23,3.4,6.5,28,0.00,,,0.00,WUHU216HW,2013-07-23 16:25:00,
2013-07-23 18:30:00,86.8,49.6,29.84,NNE,23,1.6,6.5,28,0.00,,,0.00,WUHU216HW,2013-07-23 16:30:00,
2013-07-23 18:35:00,86.9,50.8,29.84,NNE,23,2.9,3.6,29,0.00,,,0.00,WUHU216HW,2013-07-23 16:35:00,
2013-07-23 18:40:00,86.8,49.6,29.84,NNE,23,2.9,4.7,28,0.00,,,0.00,WUHU216HW,2013-07-23 16:40:00,
2013-07-23 18:42:00,86.6,49.4,29.84,NNE,23,2.2,2.2,28,0.00,,,0.00,WUHU216HW,2013-07-23 16:42:00,
2013-07-23 18:45:00,86.6,49.4,29.84,NNE,23,2.2,5.8,28,0.00,,,0.00,WUHU216HW,2013-07-23 16:45:00,
2013-07-23 18:50:00,86.6,49.4,29.84,NNE,23,2.2,5.8,28,0.00,,,0.00,WUHU216HW,2013-07-23 16:50:00,
2013-07-23 19:00:00,86.0,50.0,29.89,NNE,23,3.4,3.4,29,0.00,,,0.00,WUHU216HW,2013-07-23 17:00:00,
2013-07-23 19:05:00,86.0,51.1,29.85,NE,45,1.1,4.5,30,0.00,,,0.00,WUHU216HW,2013-07-23 17:05:00,
2013-07-23 19:08:00,85.9,50.9,29.84,NE,45,4.7,4.7,30,0.00,,,0.00,WUHU216HW,2013-07-23 17:08:00,
2013-07-23 19:10:00,85.9,50.9,29.84,NE,45,4.7,4.7,30,0.00,,,0.00,WUHU216HW,2013-07-23 17:10:00,
2013-07-23 19:15:00,85.9,50.9,29.84,NE,45,4.7,4.7,30,0.00,,,0.00,WUHU216HW,2013-07-23 17:15:00,
2013-07-23 20:00:00,83.0,53.9,29.91,SE,135,0.0,0.0,37,0.00,,,0.00,WUHU216HW,2013-07-23 18:00:00,
2013-07-23 20:05:00,82.6,53.6,29.88,SE,135,1.1,1.1,37,0.00,,,0.00,WUHU216HW,2013-07-23 18:05:00,
2013-07-23 20:10:00,82.1,53.9,29.85,SE,135,0.4,1.1,38,0.00,,,0.00,WUHU216HW,2013-07-23 18:10:00,
2013-07-23 20:16:00,81.4,53.3,29.83,SSE,158,0.2,1.1,38,0.00,,,0.00,WUHU216HW,2013-07-23 18:16:00,
2013-07-23 20:22:00,80.6,53.4,29.83,ESE,113,2.5,2.7,39,0.00,,,0.00,WUHU216HW,2013-07-23 18:22:00,
2013-07-23 20:27:00,79.9,52.0,29.83,ESE,113,1.8,3.6,38,0.00,,,0.00,WUHU216HW,2013-07-23 18:27:00,
2013-07-23 20:32:00,79.4,52.3,29.83,SE,135,2.2,4.3,39,0.00,,,0.00,WUHU216HW,2013-07-23 18:32:00,
2013-07-23 20:37:00,79.2,52.1,29.83,ESE,113,3.6,4.3,39,0.00,,,0.00,WUHU216HW,2013-07-23 18:37:00,
2013-07-23 20:42:00,78.8,52.6,29.84,ESE,113,1.8,4.3,40,0.00,,,0.00,WUHU216HW,2013-07-23 18:42:00,
2013-07-23 20:47:00,78.7,52.4,29.84,ESE,113,1.1,4.7,40,0.00,,,0.00,WUHU216HW,2013-07-23 18:47:00,
2013-07-23 20:52:00,78.3,52.7,29.83,SE,135,4.7,5.4,41,0.00,,,0.00,WUHU216HW,2013-07-23 18:52:00,
2013-07-23 20:57:00,78.1,52.6,29.82,East,90,3.4,6.3,41,0.00,,,0.00,WUHU216HW,2013-07-23 18:57:00,
2013-07-23 21:03:00,77.8,52.2,29.82,ENE,68,3.6,6.3,41,0.00,,,0.00,WUHU216HW,2013-07-23 19:03:00,
2013-07-23 21:08:00,77.6,52.7,29.83,ESE,113,2.9,5.6,42,0.00,,,0.00,WUHU216HW,2013-07-23 19:08:00,
2013-07-23 21:13:00,77.4,52.5,29.83,ESE,113,1.6,4.3,42,0.00,,,0.00,WUHU216HW,2013-07-23 19:13:00,
2013-07-23 21:18:00,77.0,52.2,29.83,ESE,113,3.4,4.3,42,0.00,,,0.00,WUHU216HW,2013-07-23 19:18:00,
2013-07-23 21:23:00,76.9,52.0,29.83,ENE,68,1.8,3.4,42,0.00,,,0.00,WUHU216HW,2013-07-23 19:23:00,
2013-07-23 21:28:00,76.7,52.5,29.84,East,90,1.1,3.4,43,0.00,,,0.00,WUHU216HW,2013-07-23 19:28:00,
2013-07-23 21:33:00,76.3,52.1,29.84,ESE,113,2.2,3.8,43,0.00,,,0.00,WUHU216HW,2013-07-23 19:33:00,
2013-07-23 21:38:00,76.1,51.9,29.84,ESE,113,3.1,3.8,43,0.00,,,0.00,WUHU216HW,2013-07-23 19:38:00,
2013-07-23 21:44:00,76.0,51.9,29.84,ESE,113,1.8,4.9,43,0.00,,,0.00,WUHU216HW,2013-07-23 19:44:00,
2013-07-23 21:49:00,75.8,51.7,29.84,ESE,113,4.0,4.9,43,0.00,,,0.00,WUHU216HW,2013-07-23 19:49:00,
2013-07-23 21:54:00,75.6,51.5,29.84,SE,135,1.6,5.1,43,0.00,,,0.00,WUHU216HW,2013-07-23 19:54:00,
2013-07-23 21:59:00,75.2,51.8,29.84,ESE,113,3.8,5.1,44,0.00,,,0.00,WUHU216HW,2013-07-23 19:59:00,
2013-07-23 22:04:00,75.1,51.6,29.85,ENE,68,2.5,4.0,44,0.00,,,0.00,WUHU216HW,2013-07-23 20:04:00,
2013-07-23 22:10:00,74.9,51.4,29.85,ENE,68,2.9,3.4,44,0.00,,,0.00,WUHU216HW,2013-07-23 20:10:00,
2013-07-23 22:15:00,74.7,51.3,29.85,SE,135,1.1,4.7,44,0.00,,,0.00,WUHU216HW,2013-07-23 20:15:00,
2013-07-23 22:20:00,74.5,51.1,29.85,SSE,158,0.4,4.7,44,0.00,,,0.00,WUHU216HW,2013-07-23 20:20:00,
2013-07-23 22:25:00,74.5,51.1,29.85,SE,135,3.1,4.3,44,0.00,,,0.00,WUHU216HW,2013-07-23 20:25:00,
2013-07-23 22:30:00,74.2,50.8,29.85,SE,135,3.1,5.1,44,0.00,,,0.00,WUHU216HW,2013-07-23 20:30:00,
2013-07-23 22:35:00,74.0,50.6,29.85,East,90,2.5,5.1,44,0.00,,,0.00,WUHU216HW,2013-07-23 20:35:00,
2013-07-23 22:36:00,74.0,50.6,29.85,ENE,68,2.5,2.5,44,0.00,,,0.00,WUHU216HW,2013-07-23 20:36:00,
2013-07-23 22:41:00,74.0,50.6,29.85,ENE,68,2.5,4.0,44,0.00,,,0.00,WUHU216HW,2013-07-23 20:41:00,
2013-07-23 23:00:00,73.3,50.5,29.92,ESE,113,1.1,1.1,45,0.00,,,0.00,WUHU216HW,2013-07-23 21:00:00,
2013-07-23 23:05:00,73.1,50.3,29.88,ESE,113,0.9,2.2,45,0.00,,,0.00,WUHU216HW,2013-07-23 21:05:00,
2013-07-23 23:10:00,72.7,50.6,29.86,ESE,113,0.4,2.2,46,0.00,,,0.00,WUHU216HW,2013-07-23 21:10:00,
2013-07-23 23:15:00,72.5,50.5,29.86,ESE,113,0.0,1.6,46,0.00,,,0.00,WUHU216HW,2013-07-23 21:15:00,
2013-07-23 23:18:00,72.2,50.1,29.86,ESE,113,0.0,0.0,46,0.00,,,0.00,WUHU216HW,2013-07-23 21:18:00,
2013-07-23 23:20:00,72.2,50.1,29.86,ESE,113,0.0,1.3,46,0.00,,,0.00,WUHU216HW,2013-07-23 21:20:00,
2013-07-23 23:26:00,72.2,50.1,29.86,ESE,113,0.0,0.0,46,0.00,,,0.00,WUHU216HW,2013-07-23 21:26:00,